STARLINK-35187

Last updated on Tue Oct 07 2025 00:02:05 GMT+0000 (Coordinated Universal Time)

1 65521U 25200B 25279.50003471 .00150592 00000+0 27259-2 0 9991 2 65521 97.6036 346.2031 0001837 108.6478 335.5232 15.49102791 5810

Satellite not in orbit

STARLINK-35187